カタログに戻る

GALILEO 28 (224)

運用中ナビゲーションMEO
NORAD 49810·PAYLOAD·🇪🇺 EU

打ち上げ Dec 5, 2021 から Guiana Space Centre

Loading…

次のパス (今後24時間)

TLE

最新Source: CelesTrak SupGP

元期: Sep 13, 2026, 23:59 UTC

1 49810C 21116B   26256.99979167  .00000000  00000+0  00000+0 0  2565
2 49810  57.1251 339.2751 0003227 217.7853 161.0855  1.70476680    18

AllMySatでGALILEO 28 (224)をリアルタイム追跡

Download on the App Store